Temperature
17 17 17 17 17 17 16 16 16 15 14 14 14 14 14 14 14 14 14 14 14 14 13 13 13 13 13 13 13 13 13 13 13 12 12 12 12 12
17 17 17 17 17 16 16 16 16 16 15 14 14 14 14 14 14 14 14 13 13 13 13 13 13 13 13 13 13 12 12 12 12 12 12 12 12 12
17 17 17 17 17 16 16 16 15 15 15 14 14 14 14 14 14 13 13 13 13 13 13 13 13 13 13 12 12 12 12 12 12 12 12 12 12 12
17 17 16 16 16 16 16 16 15 15 15 15 14 14 14 13 13 13 13 13 13 13 13 13 13 12 12 12 12 12 12 12 12 12 12 12 11 11
17 16 16 16 16 16 15 15 15 15 15 15 14 14 14 13 13 13 13 13 13 13 12 12 12 12 12 12 12 12 12 12 11 11 11 11 11 11
16 16 16 16 16 15 15 15 15 15 14 14 14 14 14 13 13 13 13 13 12 12 12 12 12 12 12 12 12 12 12 11 11 11 11 11 11 11
16 16 16 16 15 15 15 15 15 14 14 14 14 14 13 13 13 13 13 13 12 12 12 12 12 12 12 12 12 11 11 11 11 11 11 11 11 10
16 16 16 15 15 15 15 15 14 14 14 14 14 14 14 13 13 13 12 12 12 12 12 12 12 12 12 12 12 11 11 11 11 11 11 11 10 10
16 16 16 15 15 15 15 14 14 14 14 14 14 14 13 13 13 13 12 12 12 12 12 12 12 12 12 12 11 11 11 11 11 11 11 10 10 10
16 16 15 15 15 15 15 14 14 14 14 14 14 13 13 13 13 13 12 12 12 12 12 12 12 12 12 12 11 11 11 11 11 11 10 10 10 10
16 15 15 15 15 15 14 14 14 14 14 13 13 13 13 13 13 12 12 12 12 12 11 11 11 11 11 11 11 11 11 11 11 11 10 10 10 10
16 15 15 15 15 15 14 14 14 14 14 13 13 13 13 13 13 12 12 12 12 12 12 11 11 11 11 11 11 11 11 11 11 10 10 10 10 10
16 15 15 15 15 14 14 14 14 14 13 13 13 13 13 13 13 12 12 12 12 12 12 11 11 11 11 11 11 11 11 11 11 10 10 10 10 10
16 16 15 15 15 14 14 14 14 13 13 13 13 13 13 13 13 12 12 12 12 12 11 11 11 11 11 11 11 11 11 11 10 10 10 10 10 10
16 15 15 15 14 14 14 14 14 13 13 13 13 13 13 13 13 12 12 12 12 11 11 11 11 11 11 11 11 11 11 11 11 10 10 10 10 10
15 15 15 15 14 14 14 14 13 13 13 13 13 13 13 13 12 12 12 12 12 11 11 11 11 11 11 11 11 11 11 11 11 10 10 10 10 9
15 15 15 14 14 14 14 14 13 13 13 13 13 13 13 12 12 12 12 12 11 11 11 11 11 11 10 10 10 10 10 10 10 10 10 10 9 9
15 15 15 14 14 14 14 14 14 13 13 13 13 12 12 12 12 12 12 11 11 11 11 11 11 10 10 10 10 10 10 10 10 10 9 9 9 9
15 15 14 14 14 14 14 14 14 13 13 13 13 12 12 12 12 12 11 11 11 11 11 11 10 10 10 10 10 10 10 10 10 9 9 9 9 9
14 14 14 14 14 14 14 13 13 13 13 13 12 12 12 12 11 11 11 11 11 11 10 10 10 10 10 10 10 10 10 9 9 9 9 9 8 8
14 14 14 14 14 14 13 13 13 13 12 12 12 12 12 11 11 11 11 11 10 10 10 10 10 10 10 9 9 9 9 9 9 9 8 8 8 8
14 14 14 14 14 14 13 13 13 12 12 12 12 11 11 11 11 11 10 10 10 10 10 10 10 9 9 9 9 9 9 9 9 8 8 8 8 8
14 14 14 14 14 13 13 13 12 12 12 12 11 11 11 11 11 11 10 10 10 10 10 9 9 9 9 9 8 8 8 8 8 8 8 8 8 7
Wind_Speed
2 2 2 1 1 2 2 4 4 2 2 2 1 1 2 3 3 4 4 4 4 4 4 4 4 5 5 5 6 5 5 6 6 6 5 5 5 5
1 2 2 1 1 2 2 2 3 4 3 2 2 2 3 3 3 4 4 4 4 4 3 3 4 3 4 5 5 5 6 6 6 7 7 7 6 6
1 2 1 1 2 1 2 2 2 3 3 2 1 1 2 2 2 3 3 3 3 4 4 4 3 3 4 4 5 5 5 6 6 6 7 7 7 6
1 1 0 1 2 2 2 2 2 2 4 3 1 1 2 2 2 3 3 3 3 4 5 5 4 4 4 5 5 5 5 5 5 5 6 6 6 6
3 2 1 2 1 1 2 2 2 2 2 3 2 1 1 1 1 1 2 2 3 4 5 6 6 6 6 6 6 6 6 6 6 5 5 5 5 5
3 3 2 3 3 3 2 3 3 2 2 3 2 2 2 1 2 1 1 1 2 3 4 5 6 7 7 7 7 7 7 7 7 7 6 6 5 5
2 2 3 3 4 4 3 3 4 3 3 3 2 1 2 2 3 3 2 2 2 2 2 3 4 4 6 8 9 9 9 10 9 9 8 8 7 7
3 2 2 2 2 3 4 5 6 6 5 4 3 4 4 4 3 3 3 1 2 2 3 3 3 3 6 8 10 11 12 12 12 11 11 10 9 8
3 2 2 2 3 1 2 3 3 5 7 6 6 6 5 6 5 5 5 4 4 3 3 3 3 4 6 9 12 13 14 14 13 13 13 12 11 10
4 4 3 3 3 3 2 1 2 3 5 5 6 7 6 6 7 7 6 4 2 2 3 3 3 4 5 8 12 15 15 16 15 15 15 14 14 12
3 4 4 4 5 6 4 2 2 3 4 5 7 6 7 8 7 4 3 2 3 3 3 3 3 3 3 4 9 13 16 17 17 16 16 16 15 13
2 3 5 5 6 7 5 4 4 4 3 2 3 4 5 6 9 7 6 4 3 3 4 4 3 2 2 3 4 7 10 13 16 16 17 17 16 10
3 3 4 6 7 8 8 6 8 5 3 3 3 3 3 3 5 6 6 6 5 5 5 5 4 3 3 3 3 4 6 7 8 11 14 17 17 14
5 5 5 6 7 7 7 7 7 5 2 2 2 3 4 4 5 5 7 8 8 7 7 6 4 5 4 3 3 3 4 6 6 6 8 11 14 16
5 6 6 6 6 5 7 7 5 3 3 3 4 5 5 5 4 3 4 5 6 8 8 7 5 5 5 5 4 3 3 4 6 6 6 6 7 7
4 4 4 4 4 4 3 4 4 4 5 5 5 5 3 3 3 3 4 3 3 5 6 8 8 6 5 5 5 5 5 4 4 6 6 5 7 9
4 1 1 1 2 3 3 3 3 3 5 5 4 4 4 4 4 3 3 3 4 5 4 3 5 6 6 5 4 6 5 5 5 5 5 5 6 8
6 3 4 5 6 6 5 5 5 5 6 5 5 5 5 5 5 3 3 4 5 5 5 4 2 1 1 4 7 6 6 6 5 5 5 5 6 6
5 6 6 6 6 6 6 6 6 6 5 5 5 6 5 5 4 4 4 4 5 5 5 3 3 3 4 6 5 7 6 5 4 4 5 5 6 6
6 6 6 6 5 6 6 5 5 4 4 4 5 5 5 5 5 5 4 5 5 5 4 3 4 5 7 7 4 4 8 6 4 4 4 3 2 2
7 6 6 5 5 5 5 5 5 5 5 5 5 5 5 5 5 5 5 6 5 4 5 6 6 6 3 1 2 3 3 6 7 5 4 3 2 2
6 6 6 6 5 5 5 5 5 5 5 5 5 5 5 5 6 6 5 5 5 6 6 4 3 2 2 3 5 5 3 2 3 5 6 7 5 5
7 6 6 5 5 5 5 5 6 5 5 5 5 5 5 5 5 5 5 5 5 4 4 3 2 1 2 4 4 4 4 3 2 2 2 4 6 7
Wind_Direction
87 91 89 76 90 117 136 143 144 155 212 232 230 234 174 158 152 143 137 132 130 128 127 124 117 114 111 110 106 104 106 112 119 122 123 122 120 127
100 92 75 75 99 98 128 130 134 149 178 212 211 205 185 175 177 166 161 155 157 152 146 137 131 127 126 125 122 118 115 113 112 115 115 116 116 117
82 105 96 109 117 125 123 121 124 133 150 207 215 176 161 173 166 180 180 179 187 186 174 159 146 140 142 143 141 136 132 128 125 125 124 122 119 117
154 121 120 127 122 143 143 152 152 144 145 168 190 174 192 190 183 193 190 199 200 202 195 194 191 183 173 162 158 156 152 147 142 141 139 136 135 132
172 166 177 140 147 164 157 156 162 146 136 151 176 193 204 185 162 214 191 197 209 207 206 213 210 208 202 191 182 174 173 172 168 163 158 156 154 151
184 182 181 174 181 178 165 165 153 138 137 145 161 186 197 193 160 195 230 244 227 209 209 218 220 221 217 210 201 194 191 191 190 185 181 177 175 174
196 202 193 182 181 180 171 170 156 151 153 157 171 175 199 184 201 202 210 223 254 217 207 226 217 224 230 224 216 210 209 207 205 201 197 194 193 193
202 226 212 183 189 184 173 174 173 171 179 179 189 201 215 210 198 193 185 172 250 231 189 235 203 229 235 229 225 221 219 216 212 210 208 207 205 206
205 203 210 206 191 174 174 173 194 197 188 185 193 210 209 206 189 195 199 200 220 210 177 230 224 235 239 236 231 226 221 219 217 215 214 213 213 214
212 203 203 201 207 192 181 192 240 242 221 205 206 215 212 205 199 199 201 208 238 220 172 210 222 229 242 236 233 226 223 221 221 220 219 218 217 218
231 218 208 206 218 194 175 200 254 280 263 233 220 221 219 209 192 167 171 176 238 249 203 191 217 226 240 244 238 229 225 226 225 224 222 222 222 219
241 242 223 217 214 197 190 195 224 249 255 271 257 248 241 227 207 194 191 195 214 238 218 190 204 181 243 252 232 229 227 229 228 228 228 226 222 215
223 237 240 229 221 212 205 208 225 224 225 229 244 252 251 239 223 213 203 197 207 230 218 184 200 194 199 237 247 226 216 221 224 229 231 227 221 210
221 229 234 225 218 218 216 226 226 215 211 223 240 248 248 245 237 226 220 217 218 224 219 193 200 204 200 217 246 238 219 217 213 220 226 227 223 218
226 226 224 221 220 226 234 230 222 214 212 225 238 245 243 243 242 241 241 236 240 242 233 216 213 215 206 217 227 224 224 227 213 216 218 216 214 206
236 243 236 233 225 232 237 236 228 223 218 232 243 250 251 246 244 235 237 237 250 267 249 227 216 211 223 229 222 228 216 210 211 213 213 219 220 215
192 185 212 237 241 245 242 240 231 226 231 238 241 247 249 246 251 242 233 231 234 251 261 257 230 223 220 214 226 233 228 228 218 204 204 223 231 223
163 199 221 227 230 233 235 237 228 228 230 231 237 238 242 243 247 246 232 229 240 248 249 247 228 246 287 259 224 224 227 227 221 201 195 212 233 228
185 216 223 228 231 232 231 229 232 233 228 226 232 237 239 241 241 244 239 240 245 249 250 239 214 204 229 255 254 215 212 221 208 206 206 208 224 224
217 225 230 231 231 230 229 230 235 238 234 234 235 238 236 237 243 244 240 237 245 249 253 243 225 220 225 236 243 241 211 204 205 212 211 209 228 225
226 232 233 232 230 228 228 228 230 232 233 231 234 237 237 234 240 245 243 244 238 239 242 243 240 237 234 195 247 268 250 216 202 197 192 186 191 191
225 228 231 229 223 221 224 226 232 236 234 233 239 241 239 234 237 240 239 239 237 238 243 249 239 205 185 208 233 244 252 254 226 209 199 190 183 196
228 227 227 228 225 223 222 223 227 236 237 236 239 240 238 237 237 236 237 236 238 242 246 249 244 214 218 219 227 235 239 237 222 216 250 248 228 229
Height
1537 1536 1536 1536 1536 1535 1535 1535 1535 1535 1535 1535 1535 1534 1534 1534 1533 1533 1532 1532 1531 1531 1530 1530 1530 1529 1529 1529 1529 1529 1529 1529 1529 1530 1530 1530 1531 1531
1536 1536 1535 1535 1535 1535 1534 1534 1534 1534 1534 1534 1534 1534 1533 1533 1533 1532 1532 1532 1531 1531 1530 1529 1529 1529 1529 1529 1529 1529 1529 1529 1529 1529 1529 1529 1529 1530
1536 1535 1535 1535 1534 1534 1534 1534 1533 1533 1533 1533 1533 1533 1532 1532 1532 1532 1531 1531 1531 1530 1530 1529 1529 1529 1528 1528 1528 1528 1528 1528 1528 1528 1528 1528 1528 1529
1535 1535 1534 1534 1533 1533 1533 1532 1532 1532 1532 1531 1531 1531 1531 1531 1531 1531 1530 1530 1530 1529 1529 1529 1528 1528 1528 1528 1528 1528 1528 1527 1527 1527 1527 1528 1528 1528
1535 1534 1533 1533 1532 1532 1532 1531 1531 1531 1531 1530 1530 1530 1530 1530 1530 1530 1529 1529 1529 1528 1528 1528 1527 1527 1527 1527 1527 1527 1527 1527 1527 1527 1527 1527 1527 1528
1533 1533 1532 1531 1531 1530 1530 1530 1530 1530 1529 1529 1528 1528 1528 1528 1528 1528 1527 1527 1527 1527 1527 1527 1526 1526 1526 1526 1526 1525 1525 1525 1525 1525 1526 1526 1526 1526
1532 1531 1531 1530 1530 1529 1529 1528 1528 1528 1527 1527 1527 1526 1526 1526 1526 1526 1526 1526 1525 1525 1525 1525 1525 1524 1524 1524 1524 1524 1524 1524 1524 1524 1524 1524 1525 1525
1530 1530 1529 1529 1528 1528 1527 1527 1526 1526 1525 1525 1525 1524 1524 1524 1524 1524 1523 1523 1522 1523 1522 1522 1522 1522 1522 1522 1522 1522 1522 1522 1522 1523 1523 1523 1523 1523
1528 1528 1527 1527 1527 1526 1525 1525 1524 1524 1524 1523 1522 1522 1522 1521 1521 1521 1521 1520 1520 1520 1520 1519 1519 1519 1520 1519 1520 1520 1520 1520 1520 1520 1520 1520 1521 1521
1526 1526 1525 1525 1525 1524 1523 1523 1522 1521 1521 1520 1520 1520 1520 1519 1519 1519 1518 1518 1518 1517 1517 1516 1516 1516 1516 1516 1517 1517 1517 1517 1517 1517 1517 1518 1518 1519
1524 1524 1523 1522 1522 1522 1521 1520 1519 1519 1518 1518 1517 1517 1517 1516 1516 1515 1515 1514 1513 1513 1514 1513 1512 1512 1512 1512 1513 1513 1513 1513 1513 1514 1514 1515 1515 1516
1521 1521 1520 1520 1520 1519 1518 1518 1516 1516 1515 1515 1514 1514 1513 1513 1512 1512 1511 1511 1510 1509 1510 1510 1509 1509 1508 1508 1509 1509 1509 1509 1510 1510 1510 1511 1511 1512
1517 1517 1517 1517 1517 1516 1516 1515 1514 1513 1512 1511 1511 1510 1509 1509 1508 1508 1507 1507 1506 1506 1506 1506 1505 1505 1505 1504 1504 1504 1505 1505 1505 1506 1506 1507 1507 1508
1513 1513 1513 1513 1513 1513 1512 1511 1511 1510 1509 1508 1507 1506 1506 1505 1505 1504 1503 1503 1502 1502 1502 1502 1501 1501 1500 1499 1499 1499 1500 1501 1501 1501 1502 1502 1502 1503
1509 1509 1509 1509 1509 1508 1508 1507 1507 1506 1505 1504 1503 1502 1502 1502 1501 1500 1499 1498 1498 1498 1497 1497 1497 1497 1496 1495 1495 1495 1495 1495 1496 1496 1496 1497 1497 1497
1505 1505 1505 1505 1505 1504 1503 1503 1502 1501 1500 1499 1499 1498 1498 1497 1496 1496 1495 1494 1493 1492 1492 1492 1492 1492 1491 1491 1491 1490 1490 1490 1490 1491 1491 1492 1492 1492
1501 1501 1500 1500 1499 1499 1498 1498 1497 1496 1496 1495 1494 1493 1493 1492 1491 1491 1490 1489 1488 1487 1486 1487 1487 1487 1486 1486 1485 1485 1485 1485 1485 1485 1486 1486 1486 1487
1496 1495 1495 1495 1494 1493 1493 1492 1491 1491 1490 1490 1489 1488 1487 1486 1486 1485 1485 1484 1483 1482 1481 1481 1481 1481 1481 1480 1481 1479 1479 1479 1479 1480 1480 1480 1480 1481
1490 1490 1489 1489 1488 1488 1487 1487 1486 1486 1485 1484 1483 1483 1482 1481 1480 1479 1479 1478 1478 1477 1477 1477 1476 1476 1475 1474 1474 1475 1474 1474 1474 1474 1474 1474 1474 1475
1484 1484 1483 1483 1483 1483 1482 1481 1481 1480 1480 1479 1478 1477 1476 1476 1475 1474 1474 1473 1473 1472 1471 1471 1471 1470 1470 1469 1469 1469 1469 1469 1468 1468 1468 1468 1469 1470
1478 1478 1478 1478 1477 1477 1477 1476 1475 1474 1474 1473 1472 1472 1471 1471 1470 1469 1469 1468 1468 1467 1466 1465 1465 1466 1465 1465 1464 1463 1464 1464 1464 1464 1464 1464 1464 1465
1473 1472 1472 1471 1471 1471 1470 1470 1469 1468 1467 1467 1466 1466 1465 1465 1465 1464 1463 1463 1463 1462 1461 1461 1461 1460 1460 1459 1458 1458 1459 1459 1459 1460 1460 1461 1460 1460
1467 1467 1466 1466 1465 1465 1464 1464 1463 1462 1462 1461 1461 1460 1460 1460 1459 1459 1458 1458 1458 1457 1457 1456 1456 1455 1454 1454 1454 1454 1454 1455 1455 1455 1455 1456 1457 1458